Simultaneous Nadir Overpasses (SNOs) Predictions

Prediction of SNOs between NPP and PACE Satellite Orbit:

Table of predicted SNOs for the next 14.0 days since TLE Epoch: 8/3/2024
Index Date (NPP) Time (NPP) Lat,Lon (NPP) SZA (NPP ) Date (PACE) Time (PACE) Lat,Lon (PACE) SZA (PACE ) Distance(km) Time Diff (sec)
1 08/04/2024 09:53:12 79.96, -6.59 65.33 08/04/2024 09:53:57 79.96, -6.69 65.32 2.08 45
2 08/04/2024 10:43:51 -79.79, 162.30 114.97 08/04/2024 10:43:01 -79.79, 162.32 114.95 0.42 50
3 08/06/2024 14:19:39 79.95, -73.16 65.91 08/06/2024 14:19:47 79.95, -73.05 65.89 2.21 8
4 08/08/2024 17:55:23 -80.02, 52.23 113.37 08/08/2024 17:56:29 -80.02, 52.21 113.40 0.23 66
5 08/08/2024 18:46:04 79.89,-139.18 66.40 08/08/2024 18:45:35 79.89,-139.04 66.39 2.78 29
6 08/10/2024 22:21:49 -79.99, -14.10 112.80 08/10/2024 22:22:17 -79.98, -13.95 112.84 3.09 28
7 08/10/2024 23:12:26 79.74, 155.62 66.75 08/10/2024 23:11:20 79.74, 155.60 66.78 0.45 66
8 08/13/2024 02:48:13 -79.91, -79.88 112.31 08/13/2024 02:48:03 -79.90, -79.75 112.33 2.68 10
9 08/15/2024 06:23:59 80.03, 44.98 68.57 08/15/2024 06:24:45 80.02, 45.13 68.53 3.07 46



Historial Predications of SNOs between NPP and PACE
